| time (UTC) | temp F | wind direction | speed MPH | gust MPH | rain 1hr in | rain 24hr in | rain mn in | humidity % | barometer mb |
| 20260504050503 | 51 | 306 | 0.0 | 0.0 | 0.00 | 0.00 | 0.00 | 73 | 1006.5 |
| 20260504050000 | 51 | 256 | 2.0 | 2.0 | 0.00 | 0.00 | 0.00 | 72 | 1006.5 |
| 20260504045455 | 51 | 327 | 0.0 | 1.0 | 0.00 | 0.00 | 0.00 | 72 | 1006.6 |
| 20260504044952 | 51 | 133 | 2.0 | 5.0 | 0.00 | 0.00 | 0.00 | 72 | 1006.7 |
| 20260504044449 | 51 | 218 | 1.0 | 2.0 | 0.00 | 0.00 | 0.00 | 73 | 1006.6 |
| 20260504043946 | 51 | 212 | 3.0 | 3.0 | 0.00 | 0.00 | 0.00 | 72 | 1006.5 |
| 20260504043443 | 51 | 184 | 1.0 | 1.0 | 0.00 | 0.00 | 0.00 | 73 | 1006.3 |
| 20260504042941 | 51 | 201 | 2.0 | 3.0 | 0.00 | 0.00 | 0.00 | 72 | 1006.5 |
| 20260504042437 | 51 | 86 | 1.0 | 3.0 | 0.00 | 0.00 | 0.00 | 71 | 1006.4 |
| 20260504041934 | 51 | 268 | 3.0 | 5.0 | 0.00 | 0.00 | 0.00 | 72 | 1006.4 |
| 20260504041430 | 51 | 132 | 5.0 | 7.0 | 0.00 | 0.00 | 0.00 | 72 | 1006.5 |
| 20260504040926 | 51 | 216 | 2.0 | 2.0 | 0.00 | 0.00 | 0.00 | 72 | 1006.6 |
| 20260504040424 | 51 | 240 | 4.0 | 9.0 | 0.00 | 0.00 | 0.00 | 72 | 1006.7 |
| 20260504035920 | 51 | 213 | 0.0 | 1.0 | 0.00 | 0.00 | 0.00 | 72 | 1006.6 |
| 20260504035418 | 51 | 88 | 1.0 | 1.0 | 0.00 | 0.00 | 0.00 | 71 | 1006.8 |
| 20260504034914 | 51 | 115 | 3.0 | 3.0 | 0.00 | 0.00 | 0.00 | 72 | 1006.9 |
| 20260504034412 | 51 | 180 | 3.0 | 3.0 | 0.00 | 0.00 | 0.00 | 72 | 1007.0 |
| 20260504033909 | 52 | 236 | 3.0 | 3.0 | 0.00 | 0.00 | 0.00 | 71 | 1006.8 |
| 20260504033406 | 51 | 181 | 4.0 | 6.0 | 0.00 | 0.00 | 0.00 | 71 | 1007.0 |
| 20260504032902 | 51 | 207 | 1.0 | 2.0 | 0.00 | 0.00 | 0.00 | 71 | 1006.9 |
| 20260504032359 | 51 | 202 | 1.0 | 2.0 | 0.00 | 0.00 | 0.00 | 70 | 1006.8 |
| 20260504031856 | 52 | 187 | 0.0 | 0.0 | 0.00 | 0.00 | 0.00 | 70 | 1007.0 |
| 20260504031353 | 52 | 184 | 1.0 | 3.0 | 0.00 | 0.00 | 0.00 | 70 | 1007.0 |
| 20260504030849 | 52 | 61 | 1.0 | 1.0 | 0.00 | 0.00 | 0.00 | 70 | 1007.1 |
| 20260504030347 | 52 | 193 | 4.0 | 5.0 | 0.00 | 0.00 | 0.00 | 69 | 1007.3 |
| 20260504025843 | 52 | 248 | 1.0 | 2.0 | 0.00 | 0.00 | 0.00 | 70 | 1007.2 |
| 20260504025340 | 52 | 128 | 2.0 | 3.0 | 0.00 | 0.00 | 0.00 | 70 | 1007.1 |
| 20260504024837 | 52 | 234 | 1.0 | 1.0 | 0.00 | 0.00 | 0.00 | 70 | 1007.1 |
| 20260504024333 | 52 | 182 | 2.0 | 2.0 | 0.00 | 0.00 | 0.00 | 70 | 1007.4 |
| 20260504023830 | 52 | 265 | 1.0 | 1.0 | 0.00 | 0.00 | 0.00 | 69 | 1007.1 |
| 20260504023327 | 52 | 217 | 2.0 | 3.0 | 0.00 | 0.00 | 0.00 | 68 | 1007.2 |
| 20260504022822 | 52 | 234 | 2.0 | 2.0 | 0.00 | 0.00 | 0.00 | 69 | 1007.3 |
| 20260504022320 | 52 | 317 | 2.0 | 2.0 | 0.00 | 0.00 | 0.00 | 69 | 1007.3 |
| 20260504021816 | 52 | 147 | 1.0 | 2.0 | 0.00 | 0.00 | 0.00 | 68 | 1007.6 |
| 20260504021314 | 53 | 265 | 0.0 | 0.0 | 0.00 | 0.00 | 0.00 | 68 | 1007.5 |
| 20260504020810 | 52 | 180 | 7.0 | 8.0 | 0.00 | 0.00 | 0.00 | 68 | 1007.4 |
| 20260504020308 | 53 | 201 | 2.0 | 2.0 | 0.00 | 0.00 | 0.00 | 68 | 1007.4 |
| 20260504015803 | 53 | 273 | 2.0 | 3.0 | 0.00 | 0.00 | 0.00 | 67 | 1007.4 |
| 20260504015300 | 53 | 183 | 1.0 | 2.0 | 0.00 | 0.00 | 0.00 | 67 | 1007.6 |
| 20260504014755 | 53 | 267 | 2.0 | 2.0 | 0.00 | 0.00 | 0.00 | 66 | 1007.3 |
| 20260504014252 | 53 | 333 | 4.0 | 9.0 | 0.00 | 0.00 | 0.00 | 66 | 1007.5 |
| 20260504013749 | 53 | 244 | 1.0 | 2.0 | 0.00 | 0.00 | 0.00 | 66 | 1007.1 |
| 20260504013247 | 53 | 265 | 7.0 | 8.0 | 0.00 | 0.00 | 0.00 | 65 | 1007.3 |
| 20260504012743 | 54 | 309 | 0.0 | 2.0 | 0.00 | 0.00 | 0.00 | 65 | 1007.5 |
| 20260504012241 | 54 | 281 | 0.0 | 1.0 | 0.00 | 0.00 | 0.00 | 66 | 1007.4 |
| 20260504011738 | 54 | 202 | 3.0 | 5.0 | 0.00 | 0.00 | 0.00 | 65 | 1007.3 |
| 20260504011235 | 54 | 255 | 3.0 | 5.0 | 0.00 | 0.00 | 0.00 | 65 | 1007.5 |
| 20260504010731 | 54 | 233 | 8.0 | 11.0 | 0.00 | 0.00 | 0.00 | 64 | 1007.4 |
| 20260504010226 | 54 | 200 | 4.0 | 5.0 | 0.00 | 0.00 | 0.00 | 64 | 1007.6 |
| 20260504005723 | 55 | 291 | 4.0 | 5.0 | 0.00 | 0.00 | 0.00 | 64 | 1007.5 |
| 20260504005220 | 55 | 278 | 3.0 | 5.0 | 0.00 | 0.00 | 0.00 | 64 | 1007.4 |
| 20260504004718 | 55 | 211 | 5.0 | 8.0 | 0.00 | 0.00 | 0.00 | 64 | 1007.5 |
| 20260504004215 | 55 | 267 | 4.0 | 6.0 | 0.00 | 0.00 | 0.00 | 64 | 1007.5 |
| 20260504003712 | 55 | 287 | 7.0 | 9.0 | 0.00 | 0.00 | 0.00 | 64 | 1007.5 |
| 20260504003208 | 55 | 54 | 1.0 | 2.0 | 0.00 | 0.00 | 0.00 | 64 | 1007.6 |
| 20260504002705 | 55 | 264 | 2.0 | 5.0 | 0.00 | 0.00 | 0.00 | 63 | 1007.6 |
| 20260504002203 | 55 | 257 | 5.0 | 6.0 | 0.00 | 0.00 | 0.00 | 62 | 1007.6 |
| 20260504001701 | 55 | 267 | 5.0 | 9.0 | 0.00 | 0.00 | 0.00 | 61 | 1007.6 |
| 20260504001157 | 56 | 214 | 2.0 | 3.0 | 0.00 | 0.00 | 0.00 | 60 | 1007.5 |
| 20260504000654 | 56 | 261 | 3.0 | 5.0 | 0.00 | 0.00 | 0.00 | 59 | 1007.6 |
| 20260504000151 | 57 | 197 | 10.0 | 13.0 | 0.00 | 0.00 | 0.00 | 58 | 1007.6 |
| 20260503235649 | 57 | 153 | 3.0 | 5.0 | 0.00 | 0.00 | 0.00 | 58 | 1007.5 |
| 20260503235146 | 58 | 228 | 7.0 | 8.0 | 0.00 | 0.00 | 0.00 | 57 | 1007.3 |
| 20260503234644 | 58 | 306 | 5.0 | 6.0 | 0.00 | 0.00 | 0.00 | 56 | 1007.5 |
| 20260503234142 | 58 | 228 | 9.0 | 15.0 | 0.00 | 0.00 | 0.00 | 56 | 1007.4 |
| 20260503233638 | 58 | 194 | 4.0 | 6.0 | 0.00 | 0.00 | 0.00 | 55 | 1007.3 |
| 20260503233134 | 58 | 172 | 3.0 | 3.0 | 0.00 | 0.00 | 0.00 | 55 | 1007.3 |
| 20260503232631 | 59 | 291 | 5.0 | 6.0 | 0.00 | 0.00 | 0.00 | 54 | 1007.2 |
| 20260503232129 | 59 | 194 | 7.0 | 9.0 | 0.00 | 0.00 | 0.00 | 53 | 1007.4 |
| 20260503231627 | 59 | 240 | 4.0 | 6.0 | 0.00 | 0.00 | 0.00 | 53 | 1007.4 |
| 20260503231123 | 59 | 234 | 8.0 | 13.0 | 0.00 | 0.00 | 0.00 | 53 | 1007.4 |
| 20260503230620 | 59 | 200 | 1.0 | 3.0 | 0.00 | 0.00 | 0.00 | 54 | 1007.4 |
| 20260503230117 | 59 | 215 | 4.0 | 6.0 | 0.00 | 0.00 | 0.00 | 54 | 1007.5 |
| 20260503225614 | 59 | 308 | 4.0 | 5.0 | 0.00 | 0.00 | 0.00 | 55 | 1007.6 |
| 20260503225114 | 59 | 249 | 2.0 | 3.0 | 0.00 | 0.00 | 0.00 | 55 | 1007.3 |
| 20260503224611 | 59 | 288 | 3.0 | 3.0 | 0.00 | 0.00 | 0.00 | 53 | 1007.5 |
| 20260503224109 | 59 | 211 | 3.0 | 5.0 | 0.00 | 0.00 | 0.00 | 52 | 1007.4 |
| 20260503223607 | 60 | 265 | 4.0 | 5.0 | 0.00 | 0.00 | 0.00 | 51 | 1007.6 |
| 20260503223103 | 60 | 323 | 9.0 | 15.0 | 0.00 | 0.00 | 0.00 | 50 | 1007.6 |
| 20260503222601 | 60 | 292 | 6.0 | 9.0 | 0.00 | 0.00 | 0.00 | 50 | 1007.7 |
| 20260503222058 | 60 | 289 | 8.0 | 10.0 | 0.00 | 0.00 | 0.00 | 49 | 1007.7 |
| 20260503221556 | 60 | 273 | 10.0 | 15.0 | 0.00 | 0.00 | 0.00 | 48 | 1007.8 |
| 20260503221053 | 60 | 223 | 3.0 | 3.0 | 0.00 | 0.00 | 0.00 | 48 | 1007.6 |
| 20260503220549 | 61 | 246 | 6.0 | 8.0 | 0.00 | 0.00 | 0.00 | 47 | 1007.6 |
| 20260503220047 | 61 | 247 | 7.0 | 9.0 | 0.00 | 0.00 | 0.00 | 47 | 1007.9 |
| 20260503215544 | 61 | 268 | 5.0 | 7.0 | 0.00 | 0.00 | 0.00 | 48 | 1007.7 |
| 20260503215040 | 61 | 226 | 3.0 | 5.0 | 0.00 | 0.00 | 0.00 | 48 | 1007.8 |
| 20260503214539 | 61 | 210 | 6.0 | 8.0 | 0.00 | 0.00 | 0.00 | 48 | 1007.6 |
| 20260503214035 | 62 | 262 | 5.0 | 6.0 | 0.00 | 0.00 | 0.00 | 47 | 1007.6 |
| 20260503213533 | 62 | 220 | 1.0 | 1.0 | 0.00 | 0.00 | 0.00 | 47 | 1007.4 |
| 20260503213030 | 62 | 238 | 7.0 | 8.0 | 0.00 | 0.00 | 0.00 | 47 | 1007.4 |
| 20260503212527 | 62 | 119 | 4.0 | 5.0 | 0.00 | 0.00 | 0.00 | 47 | 1007.4 |
| 20260503212025 | 62 | 259 | 11.0 | 14.0 | 0.00 | 0.00 | 0.00 | 45 | 1007.7 |
| 20260503211522 | 63 | 229 | 7.0 | 9.0 | 0.00 | 0.00 | 0.00 | 46 | 1007.6 |
| 20260503211017 | 63 | 243 | 5.0 | 8.0 | 0.00 | 0.00 | 0.00 | 45 | 1007.3 |
| 20260503210514 | 63 | 225 | 4.0 | 6.0 | 0.00 | 0.00 | 0.00 | 45 | 1007.7 |
| 20260503210010 | 63 | 185 | 4.0 | 6.0 | 0.00 | 0.00 | 0.00 | 46 | 1007.4 |
| 20260503205506 | 62 | 182 | 7.0 | 9.0 | 0.00 | 0.00 | 0.00 | 45 | 1007.7 |
| 20260503205003 | 62 | 231 | 7.0 | 9.0 | 0.00 | 0.00 | 0.00 | 46 | 1007.7 |
| 20260503204500 | 62 | 194 | 9.0 | 15.0 | 0.00 | 0.00 | 0.00 | 45 | 1007.7 |
| 20260503203956 | 62 | 263 | 11.0 | 15.0 | 0.00 | 0.00 | 0.00 | 44 | 1007.8 |
| 20260503203454 | 62 | 253 | 6.0 | 7.0 | 0.00 | 0.00 | 0.00 | 45 | 1007.6 |
| 20260503202950 | 62 | 215 | 8.0 | 13.0 | 0.00 | 0.00 | 0.00 | 45 | 1007.9 |
| 20260503202449 | 62 | 200 | 3.0 | 3.0 | 0.00 | 0.00 | 0.00 | 46 | 1007.7 |
| 20260503201947 | 62 | 260 | 9.0 | 11.0 | 0.00 | 0.00 | 0.00 | 45 | 1007.8 |
| 20260503201444 | 62 | 244 | 3.0 | 6.0 | 0.00 | 0.00 | 0.00 | 47 | 1008.0 |
| 20260503200942 | 62 | 238 | 8.0 | 9.0 | 0.00 | 0.00 | 0.00 | 45 | 1008.1 |
| 20260503200438 | 61 | 231 | 10.0 | 15.0 | 0.00 | 0.00 | 0.00 | 47 | 1008.0 |
| 20260503195935 | 62 | 192 | 2.0 | 2.0 | 0.00 | 0.00 | 0.00 | 48 | 1008.4 |
| 20260503195432 | 62 | 208 | 4.0 | 7.0 | 0.00 | 0.00 | 0.00 | 46 | 1008.0 |
| 20260503194928 | 62 | 185 | 4.0 | 5.0 | 0.00 | 0.00 | 0.00 | 48 | 1008.5 |
| 20260503194425 | 62 | 217 | 6.0 | 11.0 | 0.00 | 0.00 | 0.00 | 47 | 1008.5 |
| 20260503193921 | 61 | 248 | 9.0 | 11.0 | 0.00 | 0.00 | 0.00 | 46 | 1008.4 |
| 20260503193416 | 61 | 252 | 6.0 | 9.0 | 0.00 | 0.00 | 0.00 | 47 | 1008.6 |
| 20260503192912 | 61 | 268 | 11.0 | 14.0 | 0.00 | 0.00 | 0.00 | 47 | 1008.5 |
| 20260503192409 | 62 | 198 | 5.0 | 7.0 | 0.00 | 0.00 | 0.00 | 47 | 1008.7 |
| 20260503191904 | 64 | 276 | 8.0 | 10.0 | 0.00 | 0.00 | 0.00 | 46 | 1008.8 |
| 20260503191403 | 63 | 222 | 6.0 | 8.0 | 0.00 | 0.00 | 0.00 | 47 | 1008.8 |
| 20260503190858 | 62 | 208 | 5.0 | 7.0 | 0.00 | 0.00 | 0.00 | 48 | 1008.6 |
| 20260503190356 | 62 | 243 | 10.0 | 15.0 | 0.00 | 0.00 | 0.00 | 49 | 1009.0 |
| 20260503185852 | 61 | 241 | 11.0 | 13.0 | 0.00 | 0.00 | 0.00 | 50 | 1009.0 |
| 20260503185349 | 61 | 172 | 6.0 | 9.0 | 0.00 | 0.00 | 0.00 | 50 | 1009.1 |
| 20260503184848 | 60 | 322 | 5.0 | 9.0 | 0.00 | 0.00 | 0.00 | 51 | 1009.1 |
| 20260503184345 | 61 | 164 | 9.0 | 10.0 | 0.00 | 0.00 | 0.00 | 50 | 1009.2 |
| 20260503183840 | 61 | 242 | 5.0 | 8.0 | 0.00 | 0.00 | 0.00 | 50 | 1009.3 |
| 20260503183338 | 62 | 277 | 8.0 | 11.0 | 0.00 | 0.00 | 0.00 | 49 | 1009.1 |
| 20260503182835 | 63 | 228 | 5.0 | 6.0 | 0.00 | 0.00 | 0.00 | 47 | 1009.4 |
| 20260503182334 | 62 | 233 | 6.0 | 9.0 | 0.00 | 0.00 | 0.00 | 47 | 1009.3 |
| 20260503181831 | 62 | 258 | 15.0 | 23.0 | 0.00 | 0.00 | 0.00 | 48 | 1009.4 |
| 20260503181328 | 62 | 263 | 13.0 | 18.0 | 0.00 | 0.00 | 0.00 | 47 | 1009.5 |
| 20260503180825 | 62 | 276 | 5.0 | 6.0 | 0.00 | 0.00 | 0.00 | 46 | 1009.6 |
| 20260503180323 | 62 | 244 | 9.0 | 11.0 | 0.00 | 0.00 | 0.00 | 45 | 1009.7 |
| 20260503175819 | 62 | 189 | 5.0 | 9.0 | 0.00 | 0.00 | 0.00 | 46 | 1009.6 |
| 20260503175317 | 61 | 284 | 6.0 | 8.0 | 0.00 | 0.00 | 0.00 | 46 | 1010.0 |
| 20260503174812 | 60 | 233 | 2.0 | 2.0 | 0.00 | 0.00 | 0.00 | 49 | 1010.0 |
| 20260503174311 | 60 | 282 | 5.0 | 7.0 | 0.00 | 0.00 | 0.00 | 48 | 1009.8 |
| 20260503173806 | 60 | 232 | 7.0 | 9.0 | 0.00 | 0.00 | 0.00 | 48 | 1010.0 |
| 20260503173302 | 60 | 224 | 7.0 | 8.0 | 0.00 | 0.00 | 0.00 | 47 | 1010.1 |
| 20260503172759 | 60 | 245 | 10.0 | 11.0 | 0.00 | 0.00 | 0.00 | 47 | 1010.1 |
| 20260503172256 | 60 | 258 | 6.0 | 9.0 | 0.00 | 0.00 | 0.00 | 48 | 1010.2 |
| 20260503171752 | 59 | 285 | 3.0 | 3.0 | 0.00 | 0.00 | 0.00 | 47 | 1010.3 |
| 20260503171249 | 59 | 205 | 1.0 | 3.0 | 0.00 | 0.00 | 0.00 | 48 | 1010.5 |
| 20260503170747 | 60 | 247 | 5.0 | 7.0 | 0.00 | 0.00 | 0.00 | 48 | 1010.8 |
| 20260503170243 | 59 | 272 | 5.0 | 8.0 | 0.00 | 0.00 | 0.00 | 48 | 1010.7 |
| 20260503160205 | 57 | 243 | 4.0 | 6.0 | 0.00 | 0.00 | 0.00 | 51 | 1011.4 |
| 20260503150636 | 53 | 233 | 3.0 | 3.0 | 0.00 | 0.00 | 0.00 | 53 | 1011.9 |
| 20260503150131 | 53 | 268 | 4.0 | 7.0 | 0.00 | 0.00 | 0.00 | 52 | 1011.8 |
| 20260503131025 | 50 | 271 | 4.0 | 6.0 | 0.00 | 0.00 | 0.00 | 57 | 1012.2 |
| 20260503130522 | 50 | 275 | 4.0 | 5.0 | 0.00 | 0.00 | 0.00 | 58 | 1012.5 |
| 20260503110413 | 39 | 264 | 2.0 | 2.0 | 0.00 | 0.00 | 0.00 | 67 | 1012.5 |
| 20260503090258 | 35 | 246 | 0.0 | 0.0 | 0.00 | 0.00 | 0.00 | 76 | 1013.7 |
| 20260503081226 | 33 | 316 | 0.0 | 0.0 | 0.00 | 0.00 | 0.00 | 80 | 1014.0 |
| 20260503080721 | 33 | 310 | 0.0 | 0.0 | 0.00 | 0.00 | 0.00 | 80 | 1014.0 |
| 20260503080219 | 33 | 310 | 0.0 | 0.0 | 0.00 | 0.00 | 0.00 | 79 | 1014.0 |
| 20260503072655 | 35 | 310 | 0.0 | 0.0 | 0.00 | 0.00 | 0.00 | 75 | 1014.1 |
| 20260503072152 | 35 | 282 | 0.0 | 0.0 | 0.00 | 0.00 | 0.00 | 75 | 1014.0 |
| 20260503071649 | 35 | 285 | 0.0 | 0.0 | 0.00 | 0.00 | 0.00 | 75 | 1014.1 |
| 20260503071145 | 36 | 294 | 0.0 | 0.0 | 0.00 | 0.00 | 0.00 | 75 | 1014.2 |
| 20260503070642 | 36 | 295 | 0.0 | 0.0 | 0.00 | 0.00 | 0.00 | 74 | 1014.4 |
| 20260503070140 | 36 | 309 | 0.0 | 0.0 | 0.00 | 0.00 | 0.00 | 73 | 1014.3 |
| 20260503060105 | 38 | 285 | 0.0 | 0.0 | 0.00 | 0.00 | 0.00 | 67 | 1015.0 |
| 20260503055056 | 39 | 239 | 1.0 | 1.0 | 0.00 | 0.00 | 0.00 | 67 | 1014.7 |
| 20260503054552 | 39 | 285 | 1.0 | 2.0 | 0.00 | 0.00 | 0.00 | 66 | 1014.8 |
| 20260503054049 | 39 | 282 | 0.0 | 0.0 | 0.00 | 0.00 | 0.00 | 66 | 1015.0 |
| 20260503053547 | 39 | 197 | 1.0 | 1.0 | 0.00 | 0.00 | 0.00 | 65 | 1014.9 |
| 20260503053045 | 39 | 282 | 0.0 | 0.0 | 0.00 | 0.00 | 0.00 | 66 | 1014.9 |
| 20260503052541 | 39 | 236 | 1.0 | 2.0 | 0.00 | 0.00 | 0.00 | 65 | 1015.0 |
| 20260503052037 | 40 | 250 | 3.0 | 3.0 | 0.00 | 0.00 | 0.00 | 65 | 1015.1 |
| 20260503051533 | 40 | 283 | 1.0 | 1.0 | 0.00 | 0.00 | 0.00 | 65 | 1014.9 |